Regional Weather Roundup
Issued by NWS

Home | Current Version | Previous Version | Graphics & Text | Print | Product List | Glossary On
Versions: 1 2 3 4 5 6 7 8 9 10 11 12 13 14 15 16 17 18 19 20 21 22 23 24 25 26 27
000
ASUS45 KCYS 221410
RWRWY

WYOMING REGIONAL WEATHER ROUNDUP
NATIONAL WEATHER SERVICE CHEYENNE WY
800 AM MDT SUN OCT 22 2017

NOTE:  "FAIR" INDICATES FEW OR NO CLOUDS BELOW 12,000 FEET
WITH NO SIGNIFICANT WEATHER AND/OR OBSTRUCTIONS TO VISIBILITY.

WYZ001-221500-
YELLOWSTONE NATIONAL PARK

CITY           SKY/WX    TMP DP  RH WIND       PRES   REMARKS
LK YELLOWSTONE   N/A     30  30 100 E3        30.20S
W YELLOWSTONE  NOT AVBL

$$
WYZ002>013-054>058-071-098>099-221500-
NORTHERN WYOMING

CITY           SKY/WX    TMP DP  RH WIND       PRES   REMARKS
JACKSON        CLOUDY    38  31  76 S18G24    30.24R WCI  28
CODY           FAIR      51  28  41 SW21G31   30.01S
GREYBULL       FAIR      32  19  58 CALM      30.04R
WORLAND        FAIR      29  22  75 SE8       30.01F WCI  21
SHERIDAN       FAIR      55  29  36 W10       29.87F
BUFFALO        MOCLDY    45  17  32 SE6       29.92F
GILLETTE       FAIR      45  22  40 SW20      29.92S
HULETT         FAIR      43  19  39 SW15G23   29.93F
NEWCASTLE      FAIR      34  19  55 NE3       30.02R

$$
WYZ014>020-022>026-101>103-221500-
CENTRAL WYOMING

CITY           SKY/WX    TMP DP  RH WIND       PRES   REMARKS
BIG PINEY      FAIR      17  14  88 NE8       30.30R WCI   7
PINEDALE       CLOUDY    32  25  74 W9        30.31R WCI  24
DUBOIS         FAIR      36  27  69 NW22G33   30.15R WCI  24
LANDER         FAIR      33  21  61 W6        30.08S WCI  28
RIVERTON       FAIR      33  20  58 S6        30.09S WCI  28
CASPER         FAIR      40  20  44 SW15      30.10R WCI  32
DOUGLAS        FAIR      46  22  38 W24G30    30.03F

$$
WYZ021-027>030-104>119-221500-
SOUTHERN WYOMING

CITY           SKY/WX    TMP DP  RH WIND       PRES   REMARKS
EVANSTON       CLOUDY    37  21  52 S7        30.37S WCI  32
KEMMERER       FAIR      32  21  64 W5        30.33S WCI  27
FORT BRIDGER   PTSUNNY   40  24  53 W21G28    30.36R WCI  30
ROCK SPRINGS   CLOUDY    40  23  50 SW10      30.32R WCI  33
DIXON          PTSUNNY   37  19  47 SW7G22    30.38S WCI  32
RAWLINS        FAIR      37  19  48 SW15      30.28R WCI  28
SARATOGA       FAIR      37  21  52 SW13G18   30.29F WCI  29
LARAMIE        FAIR      35  20  54 SW9G20    30.17S WCI  28
CHEYENNE       FAIR      44  20  38 W31G41    30.14R
TORRINGTON     FAIR      49  20  31 W23G31    30.04S
PINE BLUFFS    FAIR      37  19  48 MISG      30.14R

$$




USA.gov is the U.S. government's official web portal to all federal, state and local government web resources and services.